Volver al catálogo

DELTA 1 DEB

ActivoPO
NORAD 42644·DEBRIS·🇺🇸 United States

Lanzado Jun 12, 1975 desde Vandenberg Space Force Base

Loading…

Próximos Pases (próximas 24 horas)

TLE

ObsoletoSource: Space-Track

Época: Aug 31, 2026, 03:04 UTC

1 42644U 75052MD  26243.12837297  .00000026  00000-0  15843-3 0  9997
2 42644  99.6287 188.4383 0158665 350.5444   9.2696 13.17306319265216

Sigue DELTA 1 DEB en tiempo real con AllMySat

Download on the App Store